						0
					 | 
				
				
				
					
						
					 | 
				
				
					
						
					 | 
				
			
		
			
			
				
				
					
						 
					 | 
				
				
				
					
						
					 | 
				
				
				
					
					
					Asteroid 2011 UU20
					
					
					
					
						
					
					
						
							(Preview)
						
						
						
						
							
						
							
								Orbital elements:
2011 UU20                                                Earth MOID = 0.2387 AU
Epoch 2011 Aug. 27.0 TT = JDT 2455800.5                 MPC
M 303.07702              (2000.0)            P               Q
n   0.24027542     Peri.  136.20873     -0.65916230     -0.75123469
a   2.5624958      Node   354.68840     +0.54859969     -0.44951897
e   0.5494656      Incl.   21.50395     +0.51433786     -0.48330025
P   4.10           H   18.... 
							 
							
						 
						
					
				 | 
				
					
						Blobrana
					 | 
				
				
					
						0
					 | 
				
				
				
					
						
					 | 
				
				
					
						
					 | 
				
			
		
			
			
				
				
					
						 
					 | 
				
				
				
					
						
					 | 
				
				
				
					
					
					Asteroid 2011 UE21
					
					
					
					
						
					
					
						
							(Preview)
						
						
						
						
							
						
							
								Orbital elements:
2011 UE21                                                Earth MOID = 0.0977 AU
Epoch 2011 Aug. 27.0 TT = JDT 2455800.5                 MPC
M   4.51915              (2000.0)            P               Q
n   0.31105116     Peri.  255.55604     -0.12767771     +0.98463321
a   2.1573213      Node     9.81678     -0.39606202     +0.05951925
e   0.7229704      Incl.   44.33189     -0.90930373     -0.16417949
P   3.17           H   20.3           G   0.... 
							 
							
						 
						
					
				 | 
				
					
						Blobrana
					 | 
				
				
					
						0
					 | 
				
				
				
					
						
					 | 
				
				
					
						
					 | 
				
			
		
			
			
				
				
					
						 
					 | 
				
				
				
					
						
					 | 
				
				
				
					
					
					Asteroid 2011 UF21
					
					
					
					
						
					
					
						
							(Preview)
						
						
						
						
							
						
							
								Orbital elements:
2011 UF21                                                Earth MOID = 0.0625 AU
Epoch 2011 Aug. 27.0 TT = JDT 2455800.5                 MPC
M  53.09805              (2000.0)            P               Q
n   0.52458702     Peri.   65.86597     -0.23281471     +0.96983721
a   1.5226182      Node   191.40418     -0.97080863     -0.23616727
e   0.4096385      Incl.   21.41714     -0.05768815     +0.06033910
P   1.88           H   19.8           G... 
							 
							
						 
						
					
				 | 
				
					
						Blobrana
					 | 
				
				
					
						0
					 | 
				
				
				
					
						
					 | 
				
				
					
						
					 | 
				
			
		
			
			
				
				
					
						 
					 | 
				
				
				
					
						
					 | 
				
				
				
					
					
					Asteroid 2011 UL21
					
					
					
					
						
					
					
						
							(Preview)
						
						
						
						
							
						
							
								Orbital elements:
2011 UL21                                                Earth MOID = 0.0815 AU
Epoch 2011 Aug. 27.0 TT = JDT 2455800.5                 MPC
M 327.24461              (2000.0)            P               Q
n   0.26396835     Peri.  281.07967     -0.78140157     +0.26126749
a   2.4067712      Node   276.09820     -0.03143515     -0.92346177
e   0.6829236      Incl.   34.74512     -0.62323624     -0.28099405
P   3.73           H   15.... 
							 
							
						 
						
					
				 | 
				
					
						Blobrana
					 | 
				
				
					
						0
					 | 
				
				
				
					
						
					 | 
				
				
					
						
					 |